CAPE
0 0 0 0 0 0 0 0 0 0 0 0 0 0 0 0 0 0 0 0 0 0 0 0 0 0 0 0 0 0 0 0 0 0 0 0 0 1
0 0 0 0 0 0 0 0 0 0 0 0 0 0 0 0 0 0 0 0 0 0 0 0 0 0 0 0 0 0 0 0 0 0 0 0 0 1
0 0 0 0 0 0 0 0 0 0 0 0 0 0 0 0 0 0 0 0 0 0 0 0 0 0 0 0 0 0 0 0 0 0 0 0 0 2
0 0 0 0 0 0 0 0 0 0 0 0 0 0 0 0 0 0 0 0 0 0 0 0 0 0 0 0 0 0 0 0 0 0 0 0 1 1
0 0 0 0 0 0 0 0 0 0 0 0 0 0 0 0 0 0 0 0 0 0 0 0 0 0 0 0 0 0 0 0 0 0 0 0 0 0
0 0 0 0 0 0 0 0 0 0 0 0 0 0 0 0 0 0 0 0 0 0 0 0 0 0 0 0 0 0 0 0 0 0 1 0 0 0
0 0 0 0 0 0 0 0 0 0 0 0 0 0 0 0 0 0 0 0 0 0 0 0 0 0 0 0 0 0 0 0 0 0 0 0 0 0
0 0 0 0 0 0 0 0 0 0 0 0 0 0 0 0 0 0 0 0 0 0 0 0 0 0 0 0 0 0 0 0 0 0 0 0 1 1
0 0 0 0 0 0 0 0 0 0 0 0 0 0 0 0 0 0 0 0 0 0 0 0 0 0 0 0 0 0 0 0 0 0 0 0 1 1
0 0 0 0 0 0 0 0 0 0 0 0 0 0 0 0 0 0 0 0 0 0 0 0 0 0 0 0 0 0 0 0 0 0 0 0 0 0
0 0 0 0 0 0 0 0 0 0 0 0 0 0 0 0 0 0 0 0 0 0 0 0 0 0 0 0 0 0 0 0 0 0 0 0 0 0
0 0 0 0 1 2 0 0 0 0 0 0 0 0 0 0 0 0 0 0 0 0 0 0 0 0 0 0 0 0 0 0 0 0 0 0 0 0
0 0 0 1 1 3 0 0 0 0 0 0 0 0 0 0 0 0 0 0 0 0 0 0 0 0 0 0 0 0 0 0 0 0 0 0 0 0
0 0 0 0 1 1 0 0 0 0 0 0 0 0 0 0 0 0 0 0 0 0 0 0 0 0 0 0 0 0 0 0 0 0 0 0 0 0
0 0 0 1 1 1 0 0 0 0 0 0 0 0 0 0 0 0 0 0 0 0 0 0 0 0 0 0 0 0 0 0 0 0 0 0 0 0
0 0 0 2 0 0 1 1 0 0 0 0 0 0 0 0 0 0 0 0 0 0 0 0 0 0 0 0 0 0 0 0 0 0 0 0 0 0
1 1 1 0 0 0 0 1 1 2 1 2 0 0 0 0 0 0 0 0 0 0 0 0 0 0 0 0 0 0 0 0 0 0 0 0 0 0
1 1 0 1 1 1 0 1 1 1 2 1 1 1 0 0 0 0 0 0 0 0 0 0 0 0 0 0 0 0 0 0 0 0 0 0 0 0
0 0 0 1 1 0 1 2 2 1 1 1 1 1 0 0 0 0 0 0 0 0 0 0 0 0 0 0 0 0 0 0 0 0 0 0 0 0
0 0 0 1 1 1 1 0 0 0 0 0 0 0 0 0 0 0 0 0 0 0 0 0 0 0 0 0 0 0 0 0 0 0 0 0 0 0
0 0 1 1 1 1 0 0 0 0 0 0 0 0 0 0 0 0 0 0 0 0 0 0 0 0 0 0 0 0 0 0 0 0 0 0 0 0
0 0 0 0 1 1 0 0 0 1 0 0 0 0 0 0 0 0 0 0 0 0 0 0 0 0 0 0 0 0 0 0 0 0 0 0 0 1
0 0 0 1 1 1 0 0 0 1 0 0 0 0 0 0 0 0 0 0 0 0 0 0 0 0 0 0 0 0 0 0 0 0 0 0 0 0
CIN
-0 -0 -0 -0 -0 -0 -0 -0 -0 -0 -0 -0 -0 -0 -0 -0 -0 -0 -0 -0 -0 -0 -0 -0 -0 -0 -0 -0 -0 -0 -0 -0 -0 -0 -0 -0 -0 -0
-0 -0 -0 -0 -0 -0 -0 -0 -0 -0 -0 -0 -0 -0 -0 -0 -0 -0 -0 -0 -0 -0 -0 -0 -0 -0 -0 -0 -0 -0 -0 -0 -0 -0 -0 -0 -0 -0
-0 -0 -0 -0 -0 -0 -0 -0 -0 -0 -0 -0 -0 -0 -0 -0 -0 -0 -0 -0 -0 -0 -0 -0 -0 -0 -0 -0 -0 -0 -0 -0 -0 -0 -0 -0 -0 -0
-0 -0 -0 -0 -0 -0 -0 -0 -0 -0 -0 -0 -0 -0 -0 -0 -0 -0 -0 -0 -0 -0 -0 -0 -0 -0 -0 -0 -0 -0 -0 -0 -0 -0 -0 -0 -0 -0
-0 -0 -0 -0 -0 -0 -0 -0 -0 -0 -0 -0 -0 -0 -0 -0 -0 -0 -0 -0 -0 -0 -0 -0 -0 -0 -0 -0 -0 -0 -0 -0 -0 -0 -0 -0 -0 -0
-0 -0 -0 -0 -0 -0 -0 -0 -0 -0 -0 -0 -0 -0 -0 -0 -0 -0 -0 -0 -0 -0 -0 -0 -0 -0 -0 -0 -0 -0 -0 -0 -0 -0 -0 -0 -0 -0
-0 -0 -0 -0 -0 -0 -0 -0 -0 -0 -0 -0 -0 -0 -0 -0 -0 -0 -0 -0 -0 -0 -0 -0 -0 -0 -0 -0 -0 -0 -0 -0 -0 -0 -0 -0 -0 -0
-0 -0 -0 -0 -0 -0 -0 -0 -0 -0 -0 -0 -0 -0 -0 -0 -0 -0 -0 -0 -0 -0 -0 -0 -0 -0 -0 -0 -0 -0 -0 -0 -0 -0 -0 -0 -0 -1
-0 -0 -0 -0 -0 -0 -0 -0 -0 -0 -0 -0 -0 -0 -0 -0 -0 -0 -0 -0 -0 -0 -0 -0 -0 -0 -0 -0 -0 -0 -0 -0 -0 -0 -0 -0 -0 -0
-0 -0 -0 -0 -0 -0 -0 -0 -0 -0 -0 -0 -0 -0 -0 -0 -0 -0 -0 -0 -0 -0 -0 -0 -0 -0 -0 -0 -0 -0 -0 -0 -0 -0 -0 -0 -0 -0
-0 -0 -0 -0 -0 -0 -0 -0 -0 -0 -0 -0 -0 -0 -0 -0 -0 -0 -0 -0 -0 -0 -0 -0 -0 -0 -0 -0 -0 -0 -0 -0 -0 -0 -0 -0 -0 -0
-0 -0 -0 -0 -0 -0 -0 -0 -0 -0 -0 -0 -0 -0 -0 -0 -0 -0 -0 -0 -0 -0 -0 -0 -0 -0 -0 -0 -0 -0 -0 -0 -0 -0 -0 -0 -0 -0
-0 -0 -0 -0 -0 -0 -0 -0 -0 -0 -0 -0 -0 -0 -0 -0 -0 -0 -0 -0 -0 -0 -0 -0 -0 -0 -0 -0 -0 -0 -0 -0 -0 -0 -0 -0 -0 -0
-0 -0 -0 -0 -0 -0 -0 -0 -0 -0 -0 -0 -0 -0 -0 -0 -0 -0 -0 -0 -0 -0 -0 -0 -0 -0 -0 -0 -0 -0 -0 -0 -0 -0 -0 -0 -0 -0
-0 -0 -0 -0 -0 -0 -0 -0 -0 -0 -0 -0 -0 -0 -0 -0 -0 -0 -0 -0 -0 -0 -0 -0 -0 -0 -0 -0 -0 -0 -0 -0 -0 -0 -0 -0 -0 -0
-0 -0 -0 -0 -0 -0 -0 -0 -0 -0 -0 -0 -0 -0 -0 -0 -0 -0 -0 -0 -0 -0 -0 -0 -0 -0 -0 -0 -0 -0 -0 -0 -0 -0 -0 -0 -0 -0
-0 -0 -0 -0 -0 -0 -0 -0 -0 -0 -0 -0 -0 -0 -0 -0 -0 -0 -0 -0 -0 -0 -0 -0 -0 -0 -0 -0 -0 -0 -0 -0 -0 -0 -0 -0 -0 -0
-0 -0 -0 -0 -0 -0 -0 -0 -0 -0 -0 -0 -0 -0 -0 -0 -0 -0 -0 -0 -0 -0 -0 -0 -0 -0 -0 -0 -0 -0 -0 -0 -0 -0 -0 -0 -0 -0
-0 -0 -0 -0 -0 -0 -0 -0 -0 -0 -0 -0 -0 -0 -0 -0 -0 -0 -0 -0 -0 -0 -0 -0 -0 -0 -0 -0 -0 -0 -0 -0 -0 -0 -0 -0 -0 -0
-0 -0 -0 -0 -0 -0 -0 -0 -0 -0 -0 -0 -0 -0 -0 -0 -0 -0 -0 -0 -0 -0 -0 -0 -0 -0 -0 -0 -0 -0 -0 -0 -0 -0 -0 -0 -0 -0
-0 -0 -0 -0 -0 -0 -0 -0 -0 -0 -0 -0 -0 -0 -0 -0 -0 -0 -0 -0 -0 -0 -0 -0 -0 -0 -0 -0 -0 -0 -0 -0 -0 -0 -0 -0 -0 -0
-0 -0 -0 -0 -0 -0 -0 -0 -0 -0 -0 -0 -0 -0 -0 -0 -0 -0 -0 -0 -0 -0 -0 -0 -0 -0 -0 -0 -0 -0 -0 -0 -0 -0 -0 -0 -0 -0
-0 -0 -0 -0 -0 -0 -0 -0 -0 -0 -0 -0 -0 -0 -0 -0 -0 -0 -0 -0 -0 -0 -0 -0 -0 -0 -0 -0 -0 -0 -0 -0 -0 -0 -0 -0 -0 -0
Wind_Speed
28 27 27 25 23 21 19 16 18 21 20 19 17 13 12 11 10 12 12 12 14 12 12 15 17 18 18 20 20 23 25 26 27 28 29 29 30 31
28 28 27 26 24 23 20 19 20 21 24 19 17 16 12 12 10 12 13 14 13 12 13 15 17 16 18 20 22 24 24 26 27 27 28 29 30 30
30 29 28 25 25 23 22 21 22 22 25 22 19 17 15 14 12 12 15 14 13 12 15 17 17 17 18 21 23 24 24 27 27 28 29 29 29 30
32 30 29 27 26 25 24 23 24 23 24 24 21 19 18 15 15 17 17 16 15 15 16 16 17 19 19 21 23 23 25 26 27 27 28 27 28 29
33 32 31 29 28 27 26 26 26 25 25 26 25 22 21 17 20 21 19 15 17 16 14 17 19 17 18 22 22 23 24 26 27 27 25 25 27 29
33 32 32 31 31 29 29 27 26 25 25 25 25 23 24 23 22 20 18 18 20 19 16 16 17 18 19 19 21 23 24 25 28 26 25 26 28 30
32 33 33 33 32 30 30 29 27 26 25 24 25 26 25 26 24 21 20 19 21 20 18 17 19 20 20 21 22 21 22 25 26 24 25 28 29 29
29 28 28 30 31 30 27 26 27 27 25 25 25 26 25 23 17 17 19 19 24 17 17 18 19 21 20 20 20 20 22 25 24 23 27 29 29 30
23 22 20 23 23 20 19 18 20 17 19 23 29 27 23 16 13 13 14 15 17 17 17 21 20 21 20 20 19 21 22 23 22 24 28 29 30 32
25 27 19 21 23 23 23 24 25 25 22 22 26 18 16 12 11 13 13 15 17 18 19 22 21 21 20 20 21 22 20 22 25 27 28 31 32 33
19 20 24 20 21 23 20 19 23 26 19 15 14 14 13 11 11 11 12 12 18 20 18 22 21 21 21 22 21 17 20 24 26 29 31 31 33 33
15 20 19 14 12 11 11 11 14 13 12 11 13 13 12 10 10 11 11 13 18 22 18 19 20 21 24 20 19 19 22 24 30 29 30 31 34 34
15 15 16 18 14 10 11 11 11 8 9 9 11 11 11 12 12 13 14 14 16 20 16 16 19 19 21 22 20 20 21 29 29 28 29 32 33 35
17 17 17 15 12 9 11 11 8 8 9 9 9 10 10 11 13 15 14 15 18 17 13 15 19 19 21 23 23 22 25 28 25 28 32 33 34 35
17 17 15 13 9 11 12 8 6 8 9 8 9 9 10 10 12 14 15 15 15 16 16 18 17 17 19 21 25 26 29 26 27 31 34 35 36 36
16 15 14 13 11 11 10 7 12 10 10 11 11 10 10 12 13 14 15 14 16 18 18 18 17 18 22 23 25 28 27 28 30 33 35 35 35 34
15 15 14 11 10 10 10 11 11 11 11 10 9 10 11 11 12 14 14 16 18 18 19 19 18 20 22 24 27 25 27 29 29 33 35 37 35 34
15 13 12 11 11 10 8 9 9 9 9 8 8 7 8 9 11 14 14 16 17 18 19 20 23 26 26 24 20 26 26 29 31 32 33 35 37 35
19 16 14 13 13 10 8 8 8 7 6 6 6 7 9 11 12 14 14 14 16 18 20 22 24 26 29 31 26 23 27 31 32 34 32 33 35 36
19 18 17 15 13 12 10 9 7 6 6 6 7 8 10 11 12 13 13 15 17 19 21 22 23 24 27 27 27 26 26 29 31 34 35 34 31 30
21 20 18 17 14 12 10 10 8 8 7 8 8 8 8 9 11 12 13 15 17 20 22 23 24 23 23 25 27 28 27 25 28 31 33 34 35 34
22 20 18 15 14 12 11 11 10 10 10 9 8 8 8 9 10 10 12 14 18 20 22 23 23 23 23 24 28 29 30 30 30 29 28 26 30 35
23 21 19 16 14 12 11 12 11 10 10 10 9 9 7 9 9 10 11 13 15 19 21 23 23 23 24 24 26 28 28 30 32 34 31 28 28 29
Wind_Direction
252 252 257 259 265 272 273 273 284 287 284 292 300 289 290 295 298 303 307 309 314 315 317 323 328 332 337 339 341 340 339 338 337 336 337 338 337 336
253 254 257 261 263 269 270 272 281 290 292 290 294 303 290 295 293 299 303 305 307 309 312 318 322 330 335 337 337 338 339 337 337 338 339 336 335 338
254 255 258 261 263 266 269 272 277 287 291 298 298 300 294 291 293 301 305 304 304 302 310 315 322 326 329 332 334 336 337 334 336 336 335 336 337 337
254 256 259 261 262 265 267 270 274 280 289 290 296 297 296 289 292 298 304 302 300 301 308 315 321 324 327 329 331 333 334 334 335 336 336 337 338 338
256 257 260 260 263 265 268 271 275 278 283 288 294 296 299 292 295 300 301 299 301 303 308 314 319 321 324 326 329 330 332 333 333 334 338 340 340 339
257 259 261 262 264 265 268 271 274 277 282 284 290 293 296 293 291 298 295 300 300 305 310 313 316 318 320 325 327 327 329 332 331 334 335 337 337 337
261 263 264 266 267 267 269 271 271 275 277 280 285 293 290 289 286 290 292 296 301 305 307 312 318 320 320 322 325 327 329 330 331 333 335 335 337 337
262 269 271 272 267 268 269 271 271 269 271 279 283 288 292 293 288 286 296 301 301 306 306 310 318 316 320 323 325 327 329 330 332 334 335 335 335 336
269 271 273 272 272 272 274 274 274 274 272 278 282 286 292 287 287 292 295 299 305 313 314 312 316 316 321 324 327 328 330 332 334 334 333 335 334 335
272 270 281 278 276 274 275 273 276 279 280 283 286 290 291 286 279 292 296 307 314 316 315 314 321 320 325 326 326 328 333 335 335 334 335 334 335 335
285 282 280 283 281 277 278 277 281 278 287 289 292 295 293 290 291 298 299 299 309 312 317 318 322 323 325 326 329 335 336 335 336 335 334 336 335 336
295 288 289 292 289 276 277 275 281 284 289 296 299 302 300 300 296 297 298 300 311 314 318 319 324 326 325 331 331 334 335 336 334 337 338 338 337 336
298 298 295 291 288 276 284 280 281 285 291 293 299 304 309 308 309 311 308 307 312 316 326 327 328 328 327 329 332 333 336 334 336 338 339 339 338 337
299 298 296 295 287 277 286 287 276 284 285 294 298 299 305 307 313 318 323 325 324 323 330 329 327 327 327 328 328 334 333 335 339 338 339 339 338 338
305 304 303 299 289 288 291 275 269 277 280 277 291 295 303 313 319 322 327 333 335 335 333 331 331 331 329 327 328 330 332 336 337 339 338 338 338 339
306 306 309 306 297 297 294 274 287 273 268 277 286 292 304 309 310 318 321 324 324 327 334 336 335 332 327 326 326 327 331 332 335 337 337 338 339 340
306 307 303 301 297 296 293 291 291 283 277 279 282 288 298 305 311 319 321 321 320 322 324 330 334 332 328 325 326 329 331 332 336 337 338 338 339 341
303 300 296 292 291 291 287 289 294 285 278 276 282 289 296 304 311 318 321 320 321 323 324 326 326 327 329 331 332 329 333 335 337 339 340 339 340 344
292 290 291 290 290 290 288 290 294 292 289 284 284 293 301 309 312 315 318 320 321 324 326 327 328 328 325 324 331 337 334 335 337 339 342 342 340 342
286 285 286 287 287 282 281 286 290 293 294 292 295 299 304 308 311 312 314 317 320 323 325 327 327 328 327 327 329 331 336 335 337 338 340 342 343 343
281 283 285 286 283 279 277 281 281 283 284 289 296 302 310 312 311 312 315 318 321 323 322 324 327 331 331 332 329 332 337 342 340 340 341 342 345 349
279 279 281 283 282 276 273 277 280 279 279 285 292 300 306 310 313 316 320 320 320 322 324 327 330 332 332 331 329 331 335 340 344 346 347 346 346 346
280 277 279 280 279 276 273 274 274 273 276 281 286 295 303 309 316 318 323 328 329 326 327 328 330 333 332 335 334 336 338 341 344 346 351 356 354 350